Retour au catalogue

STARLINK-31794

ActifCommunicationsVLEO
NORAD 59803·PAYLOAD·🇺🇸 United States

Lancé May 18, 2024 depuis Cape Canaveral Space Force Station

Loading…

Prochains Passages (prochaines 24 heures)

TLE

FraisSource: CelesTrak SupGP

Époque: Sep 15, 2026, 02:45 UTC

1 59803C 24093X   26258.11506944 -.00044637  00000+0 -16168-2 0  2583
2 59803  42.9994 219.4112 0001062 270.6380  35.8878 15.27599732    19

Suivez STARLINK-31794 en temps réel avec AllMySat

Download on the App Store